Time,TemperatureF,DewpointF,PressureIn,WindDirection,WindDirectionDegrees,WindSpeedMPH,WindSpeedGustMPH,Humidity,HourlyPrecipIn,Conditions,Clouds,dailyrainin,SolarRadiationWatts/m^2,SoftwareType,DateUTC
2013-04-24 00:10:00,42.9,41.6,30.06,North,1,5.0,12.0,95,0.01,-RA,,0.01,0.0,WeatherDisplay:10.37,2013-04-24 04:10:00,
2013-04-24 00:20:00,42.9,41.6,30.05,NNE,23,2.0,10.0,95,0.00,-RA,,0.01,0.0,WeatherDisplay:10.37,2013-04-24 04:20:00,
2013-04-24 00:30:00,42.9,41.6,30.04,NNE,15,2.0,15.0,95,0.00,-RA,,0.01,0.0,WeatherDisplay:10.37,2013-04-24 04:30:00,
2013-04-24 00:40:00,42.9,41.6,30.03,NE,49,2.0,9.0,95,0.00,-RA,,0.01,0.0,WeatherDisplay:10.37,2013-04-24 04:40:00,
2013-04-24 00:50:00,43.0,41.7,30.03,NNE,24,3.0,12.0,95,0.00,-RA,,0.01,0.0,WeatherDisplay:10.37,2013-04-24 04:50:00,
2013-04-24 01:10:00,43.0,41.7,30.02,NE,34,2.0,15.0,95,0.01,RA,,0.02,0.0,WeatherDisplay:10.37,2013-04-24 05:10:00,
2013-04-24 01:20:00,42.9,41.6,30.01,North,8,2.0,13.0,95,0.00,OVC,,0.02,0.0,WeatherDisplay:10.37,2013-04-24 05:20:00,
2013-04-24 01:30:00,42.8,41.5,30.00,NNW,342,1.0,13.0,95,0.00,OVC,,0.02,0.0,WeatherDisplay:10.37,2013-04-24 05:30:00,
2013-04-24 01:40:00,42.8,41.5,29.99,NE,34,1.0,12.0,95,0.00,OVC,,0.02,0.0,WeatherDisplay:10.37,2013-04-24 05:40:00,
2013-04-24 01:50:00,42.8,41.5,29.98,NNE,31,5.0,9.0,95,0.00,OVC,,0.02,0.0,WeatherDisplay:10.37,2013-04-24 05:50:00,
2013-04-24 02:10:00,42.8,41.5,29.96,North,5,3.0,16.0,95,0.00,OVC,,0.02,0.0,WeatherDisplay:10.37,2013-04-24 06:10:00,
2013-04-24 02:20:00,42.9,41.6,29.96,NNE,27,3.0,13.0,95,0.00,OVC,,0.02,0.0,WeatherDisplay:10.37,2013-04-24 06:20:00,
2013-04-24 02:30:00,42.9,41.6,29.95,NE,49,3.0,8.0,95,0.00,OVC,,0.02,0.0,WeatherDisplay:10.37,2013-04-24 06:30:00,
2013-04-24 02:40:00,42.9,41.5,29.96,North,11,5.0,10.0,95,0.00,OVC,,0.02,0.0,WeatherDisplay:10.37,2013-04-24 06:40:00,
2013-04-24 02:50:00,42.9,41.5,29.95,NE,49,3.0,10.0,95,0.00,OVC,,0.02,0.0,WeatherDisplay:10.37,2013-04-24 06:50:00,
2013-04-24 03:10:00,42.9,41.6,29.95,NE,39,2.0,10.0,95,0.00,OVC,,0.02,0.0,WeatherDisplay:10.37,2013-04-24 07:10:00,
2013-04-24 03:20:00,42.9,41.6,29.94,NNE,27,3.0,10.0,95,0.00,OVC,,0.02,0.0,WeatherDisplay:10.37,2013-04-24 07:20:00,
2013-04-24 03:30:00,42.9,41.6,29.94,NE,38,2.0,10.0,95,0.00,OVC,,0.02,0.0,WeatherDisplay:10.37,2013-04-24 07:30:00,
2013-04-24 03:40:00,42.9,41.6,29.93,NNE,17,5.0,12.0,95,0.00,OVC,,0.02,0.0,WeatherDisplay:10.37,2013-04-24 07:40:00,
2013-04-24 03:50:00,42.9,41.6,29.93,NW,312,2.0,14.0,95,0.00,OVC,,0.02,0.0,WeatherDisplay:10.37,2013-04-24 07:50:00,
2013-04-24 04:00:00,42.9,41.6,29.92,NNW,337,1.0,10.0,95,0.00,OVC,,0.02,0.0,WeatherDisplay:10.37,2013-04-24 08:00:00,
2013-04-24 04:10:00,43.0,41.7,29.92,NNE,31,2.0,12.0,95,0.00,OVC,,0.02,0.0,WeatherDisplay:10.37,2013-04-24 08:10:00,
2013-04-24 04:20:00,43.1,41.8,29.92,WNW,283,3.0,9.0,95,0.00,OVC,,0.02,0.0,WeatherDisplay:10.37,2013-04-24 08:20:00,
2013-04-24 04:30:00,43.1,41.8,29.92,SSW,207,5.0,10.0,95,0.00,OVC,,0.02,0.0,WeatherDisplay:10.37,2013-04-24 08:30:00,
2013-04-24 04:40:00,43.1,41.8,29.93,NE,35,2.0,8.0,95,0.00,OVC,,0.02,0.0,WeatherDisplay:10.37,2013-04-24 08:40:00,
2013-04-24 04:50:00,43.2,42.1,29.93,North,2,3.0,12.0,96,0.00,OVC,,0.02,0.0,WeatherDisplay:10.37,2013-04-24 08:50:00,
2013-04-24 05:03:00,43.2,42.1,29.93,ENE,57,5.0,13.0,96,0.00,OVC,,0.02,0.0,WeatherDisplay:10.37,2013-04-24 09:03:00,
2013-04-24 05:20:00,43.2,42.1,29.93,NE,41,2.0,13.0,96,0.00,OVC,,0.02,0.0,WeatherDisplay:10.37,2013-04-24 09:20:00,
2013-04-24 05:30:00,43.3,42.2,29.92,NE,47,1.0,18.0,96,0.00,OVC,,0.02,0.0,WeatherDisplay:10.37,2013-04-24 09:30:00,
2013-04-24 05:40:00,43.3,42.2,29.93,NNE,18,3.0,10.0,96,0.00,OVC,,0.02,0.0,WeatherDisplay:10.37,2013-04-24 09:40:00,
2013-04-24 05:50:00,43.3,42.2,29.93,NNE,32,1.0,6.0,96,0.00,OVC,,0.02,0.0,WeatherDisplay:10.37,2013-04-24 09:50:00,
2013-04-24 06:00:00,43.4,42.1,29.93,SSW,205,3.0,9.0,95,0.00,OVC,,0.02,0.0,WeatherDisplay:10.37,2013-04-24 10:00:00,
2013-04-24 06:20:00,43.4,42.1,29.93,NE,47,1.0,10.0,95,0.00,OVC,,0.02,0.0,WeatherDisplay:10.37,2013-04-24 10:20:00,
2013-04-24 06:30:00,43.4,42.1,29.93,WSW,242,2.0,8.0,95,0.00,OVC,,0.02,0.0,WeatherDisplay:10.37,2013-04-24 10:30:00,
2013-04-24 06:40:00,43.5,42.2,29.94,West,261,2.0,8.0,95,0.00,OVC,,0.02,0.0,WeatherDisplay:10.37,2013-04-24 10:40:00,
2013-04-24 06:50:00,43.5,42.2,29.94,WSW,257,1.0,7.0,95,0.00,OVC,,0.02,0.0,WeatherDisplay:10.37,2013-04-24 10:50:00,
2013-04-24 07:00:00,43.5,42.2,29.94,WSW,255,0.0,6.0,95,0.00,OVC,,0.02,0.0,WeatherDisplay:10.37,2013-04-24 11:00:00,
2013-04-24 07:10:00,43.6,42.3,29.94,WSW,256,1.0,8.0,95,0.00,OVC,,0.02,0.0,WeatherDisplay:10.37,2013-04-24 11:10:00,
2013-04-24 07:20:00,43.6,42.3,29.94,WNW,293,2.0,8.0,95,0.00,OVC,,0.02,0.0,WeatherDisplay:10.37,2013-04-24 11:20:00,
2013-04-24 07:30:00,43.7,42.4,29.94,West,275,3.0,13.0,95,0.00,OVC,,0.02,0.0,WeatherDisplay:10.37,2013-04-24 11:30:00,
2013-04-24 07:40:00,43.8,42.5,29.94,WSW,249,2.0,8.0,95,0.00,OVC,,0.02,0.0,WeatherDisplay:10.37,2013-04-24 11:40:00,
2013-04-24 07:50:00,44.0,42.7,29.95,West,272,2.0,7.0,95,0.00,OVC,,0.02,0.0,WeatherDisplay:10.37,2013-04-24 11:50:00,
2013-04-24 08:00:00,44.1,42.8,29.95,WSW,254,1.0,5.0,95,0.00,OVC,,0.02,0.0,WeatherDisplay:10.37,2013-04-24 12:00:00,
2013-04-24 08:10:00,44.3,42.7,29.95,NW,325,1.0,7.0,94,0.00,OVC,,0.02,0.0,WeatherDisplay:10.37,2013-04-24 12:10:00,
2013-04-24 08:20:00,44.5,42.9,29.95,West,269,1.0,5.0,94,0.00,OVC,,0.02,0.0,WeatherDisplay:10.37,2013-04-24 12:20:00,
2013-04-24 08:30:00,44.6,43.0,29.95,WNW,294,1.0,4.0,94,0.00,OVC,,0.02,0.0,WeatherDisplay:10.37,2013-04-24 12:30:00,
2013-04-24 08:40:00,44.7,43.1,29.96,WSW,247,2.0,5.0,94,0.00,OVC,,0.02,0.0,WeatherDisplay:10.37,2013-04-24 12:40:00,
2013-04-24 08:50:00,44.9,43.0,29.96,West,266,1.0,5.0,93,0.00,OVC,,0.02,0.0,WeatherDisplay:10.37,2013-04-24 12:50:00,
2013-04-24 09:00:00,45.2,43.3,29.97,WNW,286,1.0,5.0,93,0.00,OVC,,0.02,0.0,WeatherDisplay:10.37,2013-04-24 13:00:00,
2013-04-24 09:10:00,45.6,43.7,29.97,WNW,284,1.0,5.0,93,0.00,OVC,,0.02,0.0,WeatherDisplay:10.37,2013-04-24 13:10:00,
2013-04-24 09:20:00,46.1,43.9,29.97,WNW,286,2.0,5.0,92,0.00,OVC,,0.02,0.0,WeatherDisplay:10.37,2013-04-24 13:20:00,
2013-04-24 09:30:00,46.6,44.4,29.97,West,279,2.0,6.0,92,0.00,OVC,,0.02,0.0,WeatherDisplay:10.37,2013-04-24 13:30:00,
2013-04-24 09:40:00,47.2,44.7,29.97,NW,304,1.0,6.0,91,0.00,OVC,,0.02,0.0,WeatherDisplay:10.37,2013-04-24 13:40:00,
2013-04-24 09:50:00,47.9,45.4,29.96,WNW,288,0.0,3.0,91,0.00,OVC,,0.02,0.0,WeatherDisplay:10.37,2013-04-24 13:50:00,
2013-04-24 10:00:00,48.7,45.9,29.96,WSW,249,1.0,7.0,90,0.00,OVC,,0.02,0.0,WeatherDisplay:10.37,2013-04-24 14:00:00,
2013-04-24 10:20:00,50.1,46.6,29.96,West,280,1.0,7.0,88,0.00,OVC,,0.02,0.0,WeatherDisplay:10.37,2013-04-24 14:20:00,
2013-04-24 10:30:00,50.8,47.1,29.95,WSW,255,1.0,6.0,87,0.00,OVC,,0.02,0.0,WeatherDisplay:10.37,2013-04-24 14:30:00,
2013-04-24 10:40:00,51.2,46.8,29.95,NNE,15,1.0,6.0,85,0.00,OVC,,0.02,0.0,WeatherDisplay:10.37,2013-04-24 14:40:00,
2013-04-24 10:50:00,51.8,47.8,29.94,NNW,332,1.0,6.0,86,0.00,OVC,,0.02,0.0,WeatherDisplay:10.37,2013-04-24 14:50:00,
2013-04-24 11:00:00,52.0,47.6,29.94,West,262,1.0,4.0,85,0.00,OVC,,0.02,0.0,WeatherDisplay:10.37,2013-04-24 15:00:00,
2013-04-24 11:20:00,52.2,47.5,29.94,WSW,250,1.0,3.0,84,0.00,OVC,,0.02,0.0,WeatherDisplay:10.37,2013-04-24 15:20:00,
2013-04-24 11:30:00,52.8,48.1,29.94,WSW,257,1.0,3.0,84,0.00,OVC,,0.02,0.0,WeatherDisplay:10.37,2013-04-24 15:30:00,
2013-04-24 11:40:00,53.3,47.9,29.94,WSW,257,3.0,5.0,82,0.00,OVC,,0.02,0.0,WeatherDisplay:10.37,2013-04-24 15:40:00,
2013-04-24 11:50:00,53.7,48.0,29.95,WSW,254,1.0,4.0,81,0.00,OVC,,0.02,0.0,WeatherDisplay:10.37,2013-04-24 15:50:00,
2013-04-24 12:00:00,54.1,48.4,29.95,WSW,244,3.0,7.0,81,0.00,OVC,,0.02,0.0,WeatherDisplay:10.37,2013-04-24 16:00:00,
2013-04-24 12:20:00,55.9,49.2,29.94,WSW,237,2.0,7.0,78,0.00,OVC,,0.02,0.0,WeatherDisplay:10.37,2013-04-24 16:20:00,
2013-04-24 12:30:00,56.7,49.2,29.94,WSW,243,2.0,9.0,76,0.00,OVC,,0.02,0.0,WeatherDisplay:10.37,2013-04-24 16:30:00,
2013-04-24 12:40:00,57.2,50.0,29.93,WSW,256,5.0,7.0,77,0.00,OVC,,0.02,0.0,WeatherDisplay:10.37,2013-04-24 16:40:00,
2013-04-24 12:50:00,58.1,50.5,29.93,WSW,255,1.0,4.0,76,0.00,OVC,,0.02,0.0,WeatherDisplay:10.37,2013-04-24 16:50:00,
2013-04-24 13:00:00,59.3,51.8,29.92,WSW,250,1.0,5.0,76,0.00,BKN,,0.02,0.0,WeatherDisplay:10.37,2013-04-24 17:00:00,
2013-04-24 13:10:00,60.5,51.0,29.92,SW,226,1.0,9.0,71,0.00,BKN,,0.02,0.0,WeatherDisplay:10.37,2013-04-24 17:10:00,
2013-04-24 13:20:00,61.3,51.8,29.91,WSW,242,2.0,9.0,71,0.00,SCT,,0.02,0.0,WeatherDisplay:10.37,2013-04-24 17:20:00,
2013-04-24 13:30:00,62.7,52.0,29.90,WSW,238,1.0,5.0,68,0.00,SCT,,0.02,0.0,WeatherDisplay:10.37,2013-04-24 17:30:00,
2013-04-24 13:40:00,63.3,51.4,29.90,SW,223,3.0,6.0,65,0.00,SCT,,0.02,0.0,WeatherDisplay:10.37,2013-04-24 17:40:00,
2013-04-24 13:50:00,63.7,51.7,29.90,South,183,2.0,5.0,65,0.00,SCT,,0.02,0.0,WeatherDisplay:10.37,2013-04-24 17:50:00,
2013-04-24 14:00:00,64.7,52.3,29.90,SW,216,2.0,5.0,64,0.00,SCT,,0.02,0.0,WeatherDisplay:10.37,2013-04-24 18:00:00,
2013-04-24 14:10:00,65.0,51.2,29.89,SW,221,2.0,7.0,61,0.00,CLR,,0.02,0.0,WeatherDisplay:10.37,2013-04-24 18:10:00,
2013-04-24 14:40:00,66.9,52.1,29.88,South,178,2.0,9.0,59,0.00,CLR,,0.02,0.0,WeatherDisplay:10.37,2013-04-24 18:40:00,
2013-04-24 14:50:00,66.7,51.9,29.87,SE,137,1.0,7.0,59,0.00,CLR,,0.02,0.0,WeatherDisplay:10.37,2013-04-24 18:50:00,
2013-04-24 15:00:00,67.2,52.0,29.87,SSW,202,2.0,11.0,58,0.00,CLR,,0.02,0.0,WeatherDisplay:10.37,2013-04-24 19:00:00,
2013-04-24 15:30:00,65.1,50.4,29.86,SSE,163,1.0,12.0,59,0.00,CLR,,0.02,0.0,WeatherDisplay:10.37,2013-04-24 19:30:00,
2013-04-24 15:40:00,65.3,50.1,29.86,SSW,192,3.0,10.0,58,0.00,CLR,,0.02,0.0,WeatherDisplay:10.37,2013-04-24 19:40:00,
2013-04-24 15:50:00,65.0,51.2,29.87,SSE,166,1.0,12.0,61,0.00,CLR,,0.02,0.0,WeatherDisplay:10.37,2013-04-24 19:50:00,
2013-04-24 16:00:00,64.5,49.4,29.88,South,187,3.0,10.0,58,0.00,CLR,,0.02,0.0,WeatherDisplay:10.37,2013-04-24 20:00:00,
2013-04-24 16:20:00,64.8,49.6,29.88,South,184,2.0,8.0,58,0.00,CLR,,0.02,0.0,WeatherDisplay:10.37,2013-04-24 20:20:00,
2013-04-24 16:30:00,64.7,48.6,29.87,SSE,162,1.0,7.0,56,0.00,CLR,,0.02,0.0,WeatherDisplay:10.37,2013-04-24 20:30:00,
2013-04-24 16:40:00,64.3,47.7,29.88,SSW,200,5.0,12.0,55,0.00,CLR,,0.02,0.0,WeatherDisplay:10.37,2013-04-24 20:40:00,
2013-04-24 16:50:00,64.0,48.0,29.87,South,190,2.0,10.0,56,0.00,CLR,,0.02,0.0,WeatherDisplay:10.37,2013-04-24 20:50:00,
2013-04-24 17:00:00,63.9,46.9,29.88,SSE,168,6.0,9.0,54,0.00,CLR,,0.02,0.0,WeatherDisplay:10.37,2013-04-24 21:00:00,
2013-04-24 17:10:00,63.6,47.2,29.88,SSE,166,2.0,14.0,55,0.00,CLR,,0.02,0.0,WeatherDisplay:10.37,2013-04-24 21:10:00,
2013-04-24 17:20:00,63.3,47.3,29.88,South,190,5.0,8.0,56,0.00,CLR,,0.02,0.0,WeatherDisplay:10.37,2013-04-24 21:20:00,
2013-04-24 17:30:00,63.1,47.1,29.87,SSW,208,3.0,12.0,56,0.00,CLR,,0.02,0.0,WeatherDisplay:10.37,2013-04-24 21:30:00,
2013-04-24 17:40:00,61.8,46.9,29.87,South,180,3.0,12.0,58,0.00,CLR,,0.02,0.0,WeatherDisplay:10.37,2013-04-24 21:40:00,
2013-04-24 17:50:00,61.3,47.3,29.87,South,187,5.0,13.0,60,0.00,CLR,,0.02,0.0,WeatherDisplay:10.37,2013-04-24 21:50:00,
2013-04-24 18:00:00,61.0,47.0,29.87,South,170,5.0,12.0,60,0.00,CLR,,0.02,0.0,WeatherDisplay:10.37,2013-04-24 22:00:00,
2013-04-24 18:10:00,60.3,47.6,29.88,SSW,201,2.0,12.0,63,0.00,CLR,,0.02,0.0,WeatherDisplay:10.37,2013-04-24 22:10:00,
2013-04-24 18:20:00,59.7,47.1,29.88,South,185,5.0,12.0,63,0.00,CLR,,0.02,0.0,WeatherDisplay:10.37,2013-04-24 22:20:00,
2013-04-24 18:30:00,58.9,47.2,29.88,SSW,196,6.0,12.0,65,0.00,CLR,,0.02,0.0,WeatherDisplay:10.37,2013-04-24 22:30:00,
2013-04-24 18:40:00,57.9,46.6,29.89,SSE,155,5.0,12.0,66,0.00,CLR,,0.02,0.0,WeatherDisplay:10.37,2013-04-24 22:40:00,
2013-04-24 18:50:00,57.0,46.1,29.90,SSW,197,7.0,13.0,67,0.00,CLR,,0.02,0.0,WeatherDisplay:10.37,2013-04-24 22:50:00,
2013-04-24 19:00:00,56.2,46.1,29.90,SSW,200,3.0,20.0,69,0.00,CLR,,0.02,0.0,WeatherDisplay:10.37,2013-04-24 23:00:00,
2013-04-24 19:10:00,55.5,46.3,29.90,SSW,198,3.0,15.0,71,0.00,CLR,,0.02,0.0,WeatherDisplay:10.37,2013-04-24 23:10:00,
2013-04-24 19:20:00,55.0,46.5,29.90,SSW,202,6.0,12.0,73,0.00,CLR,,0.02,0.0,WeatherDisplay:10.37,2013-04-24 23:20:00,
2013-04-24 19:30:00,54.5,46.3,29.91,South,189,6.0,13.0,74,0.00,CLR,,0.02,0.0,WeatherDisplay:10.37,2013-04-24 23:30:00,
2013-04-24 19:40:00,54.0,46.3,29.91,SSW,193,2.0,12.0,75,0.00,CLR,,0.02,0.0,WeatherDisplay:10.37,2013-04-24 23:40:00,
2013-04-24 19:50:00,53.6,46.2,29.91,SSW,205,3.0,9.0,76,0.00,CLR,,0.02,0.0,WeatherDisplay:10.37,2013-04-24 23:50:00,
2013-04-24 20:00:00,53.2,46.2,29.91,SSW,204,2.0,8.0,77,0.00,CLR,,0.02,0.0,WeatherDisplay:10.37,2013-04-25 00:00:00,
2013-04-24 20:20:00,52.2,46.2,29.90,South,170,2.0,9.0,80,0.00,CLR,,0.02,0.0,WeatherDisplay:10.37,2013-04-25 00:20:00,
2013-04-24 20:30:00,51.5,46.1,29.91,SSW,194,2.0,12.0,82,0.00,CLR,,0.02,0.0,WeatherDisplay:10.37,2013-04-25 00:30:00,
2013-04-24 20:40:00,51.0,46.0,29.92,SSW,197,3.0,9.0,83,0.00,CLR,,0.02,0.0,WeatherDisplay:10.37,2013-04-25 00:40:00,
2013-04-24 20:50:00,50.5,46.2,29.92,South,189,5.0,10.0,85,0.00,CLR,,0.02,0.0,WeatherDisplay:10.37,2013-04-25 00:50:00,
2013-04-24 21:00:00,50.2,46.2,29.92,SSW,205,3.0,11.0,86,0.00,SCT,,0.02,0.0,WeatherDisplay:10.37,2013-04-25 01:00:00,
2013-04-24 21:10:00,50.0,46.3,29.93,SSW,195,3.0,9.0,87,0.00,BKN,,0.02,0.0,WeatherDisplay:10.37,2013-04-25 01:10:00,
2013-04-24 21:20:00,49.9,46.5,29.93,SSW,201,5.0,13.0,88,0.00,BKN,,0.02,0.0,WeatherDisplay:10.37,2013-04-25 01:20:00,
2013-04-24 21:30:00,49.8,46.7,29.94,SSW,204,5.0,16.0,89,0.00,BKN,,0.02,0.0,WeatherDisplay:10.37,2013-04-25 01:30:00,
2013-04-24 21:40:00,49.8,46.7,29.94,SSW,209,7.0,16.0,89,0.00,OVC,,0.02,0.0,WeatherDisplay:10.37,2013-04-25 01:40:00,
2013-04-24 21:50:00,49.7,46.6,29.95,SSW,207,6.0,15.0,89,0.00,OVC,,0.02,0.0,WeatherDisplay:10.37,2013-04-25 01:50:00,
2013-04-24 22:40:00,49.4,46.6,29.95,SSW,210,6.0,16.0,90,0.00,OVC,,0.02,0.0,WeatherDisplay:10.37,2013-04-25 02:40:00,
2013-04-24 22:50:00,49.4,46.6,29.95,SSW,197,3.0,15.0,90,0.00,OVC,,0.02,0.0,WeatherDisplay:10.37,2013-04-25 02:50:00,
2013-04-24 23:20:00,49.8,47.2,29.93,SSW,203,5.0,18.0,91,0.00,OVC,,0.02,0.0,WeatherDisplay:10.37,2013-04-25 03:20:00,
2013-04-24 23:30:00,50.2,48.0,29.93,SW,215,6.0,15.0,92,0.00,OVC,,0.02,0.0,WeatherDisplay:10.37,2013-04-25 03:30:00,
2013-04-24 23:40:00,50.7,48.8,29.93,SSW,197,6.0,16.0,93,0.00,OVC,,0.02,0.0,WeatherDisplay:10.37,2013-04-25 03:40:00,
2013-04-24 23:50:00,51.2,49.2,29.93,SSW,205,5.0,14.0,93,0.00,OVC,,0.02,0.0,WeatherDisplay:10.37,2013-04-25 03:50:00,